EW9259 Weather Reports


time (UTC)temp
C
wind
direction
speed
KPH
gust
KPH
rain 1hr
cm
rain 24hr
cm
rain mn
cm
humidity
%
barometer
mb
20260506125004 12 0 0.0 9.7 0.18 0.20 0.20 90 1012.3
20260506124504 12 69 1.6 9.7 0.20 0.20 0.20 90 1013.3
20260506123004 12 0 0.0 1.6 0.18 0.18 0.18 89 1013.6
20260506122504 12 0 0.0 1.6 0.10 0.10 0.10 88 1013.5
20260506122004 12 0 0.0 11.3 0.08 0.08 0.08 87 1012.9
20260506121504 12 46 1.6 11.3 0.08 0.08 0.08 86 1012.5
20260506120504 12 0 0.0 9.7 0.05 0.05 0.05 86 1011.6
20260506120005 12 0 0.0 3.2 0.05 0.05 0.05 85 1011.4
20260506115503 13 0 0.0 1.6 0.05 0.05 0.05 83 1012.5
20260506115004 13 0 0.0 1.6 0.03 0.03 0.03 81 1012.5
20260506114504 13 0 0.0 0.0 0.00 0.00 0.00 79 1013.5
20260506114004 13 0 0.0 0.0 0.00 0.00 0.00 78 1013.4
20260506113504 13 0 0.0 1.6 0.00 0.00 0.00 79 1012.4
20260506113004 13 0 0.0 4.8 0.00 0.00 0.00 79 1011.5
20260506112504 13 0 0.0 8.0 0.00 0.00 0.00 79 1011.5
20260506112004 13 0 0.0 8.0 0.00 0.00 0.00 79 1011.4
20260506111504 13 0 0.0 3.2 0.00 0.00 0.00 79 1011.3
20260506111004 13 0 0.0 0.0 0.00 0.00 0.00 79 1011.5
20260506110503 13 0 0.0 1.6 0.00 0.00 0.00 78 1011.9
20260506110005 13 0 0.0 1.6 0.00 0.00 0.00 78 1011.6
20260506105504 14 0 0.0 1.6 0.00 0.00 0.00 78 1011.3
20260506104504 14 0 0.0 4.8 0.00 0.00 0.00 78 1011.5
20260506104004 14 0 0.0 1.6 0.00 0.00 0.00 78 1011.3
20260506103504 14 0 0.0 4.8 0.00 0.00 0.00 77 1011.1
20260506102504 15 0 0.0 0.0 0.00 0.00 0.00 77 1010.8
20260506102003 15 0 0.0 1.6 0.00 0.00 0.00 77 1011.0
20260506101504 15 0 0.0 3.2 0.00 0.00 0.00 77 1011.3
20260506101004 15 0 0.0 3.2 0.00 0.00 0.00 77 1010.9
20260506100504 15 0 0.0 0.0 0.00 0.00 0.00 77 1010.9
20260506095503 15 0 0.0 0.0 0.00 0.00 0.00 77 1010.7
20260506095004 15 0 0.0 0.0 0.00 0.00 0.00 78 1010.4
20260506094003 15 0 0.0 0.0 0.00 0.00 0.00 77 1010.8
20260506093504 15 0 0.0 0.0 0.00 0.00 0.00 77 1010.7
20260506093004 15 0 0.0 1.6 0.00 0.00 0.00 77 1010.8
20260506092503 15 0 0.0 16.1 0.00 0.00 0.00 76 1010.5
20260506091003 16 25 3.2 11.3 0.00 0.00 0.00 76 1010.2
20260506090505 16 31 1.6 12.9 0.00 0.00 0.00 76 1010.1
20260506090004 16 0 0.0 12.9 0.00 0.00 0.00 75 1010.1
20260506085504 16 0 0.0 0.0 0.00 0.00 0.00 75 1010.4
20260506084004 16 0 0.0 12.9 0.00 0.00 0.00 75 1009.9
20260506083504 17 0 0.0 0.0 0.00 0.00 0.00 75 1010.2
20260506083004 17 0 0.0 0.0 0.00 0.00 0.00 74 1010.4
20260506082504 17 0 0.0 0.0 0.00 0.00 0.00 74 1010.4
20260506082004 17 0 0.0 0.0 0.00 0.00 0.00 73 1010.3
20260506081504 17 0 0.0 0.0 0.00 0.00 0.00 73 1010.4
20260506081004 17 0 0.0 0.0 0.00 0.00 0.00 73 1010.4
20260506080503 17 0 0.0 3.2 0.00 0.00 0.00 72 1010.2
20260506073503 18 48 4.8 12.9 0.00 0.00 0.00 70 1010.3
20260506073004 18 55 4.8 12.9 0.00 0.00 0.00 69 1010.2
20260506072503 19 55 1.6 12.9 0.00 0.00 0.00 69 1010.1
20260506072004 19 0 0.0 1.6 0.00 0.00 0.00 68 1010.2
20260506071504 19 82 1.6 12.9 0.00 0.00 0.00 68 1010.2
20260506071004 20 74 3.2 14.5 0.00 0.00 0.00 68 1010.3
20260506070504 20 71 1.6 14.5 0.00 0.00 0.00 67 1010.6
20260506062503 20 61 1.6 9.7 0.00 0.00 0.00 65 1009.9
20260506061505 21 56 3.2 11.3 0.00 0.00 0.00 64 1009.6
20260506061005 21 56 3.2 9.7 0.00 0.00 0.00 64 1009.5
20260506060505 21 66 1.6 9.7 0.00 0.00 0.00 63 1009.5
20260506051005 21 0 0.0 0.0 0.00 0.00 0.00 51 1009.1
20260506050505 21 0 0.0 0.0 0.00 0.00 0.00 52 1009.2
20260506045005 21 0 0.0 0.0 0.00 0.00 0.00 54 1009.3
20260506044505 21 0 0.0 0.0 0.00 0.00 0.00 55 1009.3
20260506044005 22 0 0.0 0.0 0.00 0.00 0.00 54 1009.2
20260506043005 22 0 0.0 0.0 0.00 0.00 0.00 47 1009.0
20260506042504 22 0 0.0 0.0 0.00 0.00 0.00 48 1009.0
20260506041505 22 0 0.0 0.0 0.00 0.00 0.00 46 1008.9
20260506041004 22 0 0.0 0.0 0.00 0.00 0.00 45 1008.8
20260506040504 22 0 0.0 0.0 0.00 0.00 0.00 45 1008.8
20260506040005 22 0 0.0 0.0 0.00 0.00 0.00 46 1008.8
20260506035504 22 0 0.0 0.0 0.00 0.00 0.00 45 1008.8
20260506035005 22 0 0.0 0.0 0.00 0.00 0.00 45 1008.7
20260506034505 22 0 0.0 0.0 0.00 0.00 0.00 44 1008.5
20260506033505 23 0 0.0 0.0 0.00 0.00 0.00 43 1008.7
20260506033005 23 0 0.0 0.0 0.00 0.00 0.00 43 1008.8
20260506032506 23 0 0.0 0.0 0.00 0.00 0.00 43 1008.7
20260506032004 23 0 0.0 0.0 0.00 0.00 0.00 42 1008.7
20260506031505 23 0 0.0 0.0 0.00 0.00 0.00 41 1008.8
20260506031005 23 0 0.0 0.0 0.00 0.00 0.00 40 1008.8
20260506030005 24 0 0.0 0.0 0.00 0.00 0.00 38 1008.6
20260506025505 25 0 0.0 0.0 0.00 0.00 0.00 37 1008.6
20260506025005 25 0 0.0 0.0 0.00 0.00 0.00 36 1008.6
20260506024505 25 0 0.0 0.0 0.00 0.00 0.00 35 1008.5
20260506024006 26 0 0.0 0.0 0.00 0.00 0.00 34 1008.3
20260506023505 26 0 0.0 0.0 0.00 0.00 0.00 34 1008.2
20260506023005 26 0 0.0 0.0 0.00 0.00 0.00 33 1008.1
20260506022504 26 0 0.0 0.0 0.00 0.00 0.00 34 1008.2
20260506022004 26 0 0.0 0.0 0.00 0.00 0.00 34 1008.1
20260506021504 26 0 0.0 0.0 0.00 0.00 0.00 33 1008.1
20260506021005 26 0 0.0 0.0 0.00 0.00 0.00 33 1008.1
20260506020505 26 0 0.0 0.0 0.00 0.00 0.00 32 1008.1
20260506020005 26 0 0.0 0.0 0.00 0.00 0.00 32 1007.9
20260506015505 27 0 0.0 0.0 0.00 0.00 0.00 31 1007.9
20260506015005 27 0 0.0 0.0 0.00 0.00 0.00 31 1007.9
20260506014505 27 0 0.0 0.0 0.00 0.00 0.00 31 1007.8
20260506013005 28 0 0.0 0.0 0.00 0.00 0.00 29 1007.3
20260506012505 28 0 0.0 1.6 0.00 0.00 0.00 28 1007.3
20260506012005 28 0 0.0 1.6 0.00 0.00 0.00 28 1007.2
20260506011505 28 0 0.0 0.0 0.00 0.00 0.00 28 1007.2
20260506011004 29 0 0.0 0.0 0.00 0.00 0.00 27 1007.1
20260506010505 29 0 0.0 0.0 0.00 0.00 0.00 27 1007.0
20260506005505 30 0 0.0 0.0 0.00 0.00 0.00 28 1007.1
20260506005004 30 0 0.0 4.8 0.00 0.00 0.00 28 1007.2
20260506004505 30 0 0.0 4.8 0.00 0.00 0.00 29 1007.1
20260506003505 30 0 0.0 0.0 0.00 0.00 0.00 32 1007.0
20260506003005 31 0 0.0 0.0 0.00 0.00 0.00 30 1006.7
20260506002505 31 0 0.0 0.0 0.00 0.00 0.00 30 1006.7
20260506002005 31 0 0.0 0.0 0.00 0.00 0.00 29 1006.6
20260506001505 31 0 0.0 0.0 0.00 0.00 0.00 30 1006.6
20260506001005 31 0 0.0 0.0 0.00 0.00 0.00 30 1006.6
20260506000504 31 0 0.0 0.0 0.00 0.00 0.00 30 1006.6
20260506000005 31 0 0.0 0.0 0.00 0.00 0.00 29 1006.6
20260505235504 31 0 0.0 0.0 0.00 0.00 0.00 29 1006.5
20260505235005 31 0 0.0 0.0 0.00 0.00 0.00 29 1006.5
20260505234505 31 0 0.0 0.0 0.00 0.00 0.00 28 1006.5
20260505234004 31 0 0.0 4.8 0.00 0.00 0.00 27 1006.4
20260505233005 32 266 1.6 9.7 0.00 0.00 0.00 27 1006.4
20260505232505 32 248 1.6 11.3 0.00 0.00 0.00 28 1006.5
20260505232004 32 262 1.6 11.3 0.00 0.00 0.00 27 1006.4
20260505231505 32 263 1.6 6.4 0.00 0.00 0.00 27 1006.5
20260505231005 32 260 1.6 6.4 0.00 0.00 0.00 26 1006.4
20260505230505 32 270 1.6 6.4 0.00 0.00 0.00 27 1006.5
20260505230005 32 269 1.6 9.7 0.00 0.00 0.00 26 1006.4
20260505225505 32 0 0.0 9.7 0.00 0.00 0.00 25 1006.4
20260505225004 33 0 0.0 0.0 0.00 0.00 0.00 27 1006.6
20260505224505 33 268 1.6 12.9 0.00 0.00 0.00 27 1006.6
20260505224004 33 268 1.6 12.9 0.00 0.00 0.00 26 1006.6
20260505223504 33 0 0.0 0.0 0.00 0.00 0.00 28 1006.7
20260505223005 32 0 0.0 0.0 0.00 0.00 0.00 27 1006.6
20260505222505 33 0 0.0 0.0 0.00 0.00 0.00 26 1006.5
20260505222005 32 0 0.0 0.0 0.00 0.00 0.00 27 1006.6
20260505221005 32 0 0.0 0.0 0.00 0.00 0.00 27 1006.6
20260505220505 32 0 0.0 0.0 0.00 0.00 0.00 29 1006.6
20260505220004 32 0 0.0 0.0 0.00 0.00 0.00 28 1006.7
20260505215504 33 0 0.0 0.0 0.00 0.00 0.00 27 1006.6
20260505215004 33 0 0.0 0.0 0.00 0.00 0.00 29 1006.6
20260505214505 32 0 0.0 0.0 0.00 0.00 0.00 27 1006.7
20260505214004 32 0 0.0 0.0 0.00 0.00 0.00 27 1006.6
20260505213504 32 0 0.0 0.0 0.00 0.00 0.00 26 1006.6
20260505213005 33 0 0.0 0.0 0.00 0.00 0.00 27 1006.7
20260505212005 33 0 0.0 0.0 0.00 0.00 0.00 31 1006.7
20260505211505 33 0 0.0 1.6 0.00 0.00 0.00 28 1006.7
20260505211004 33 0 0.0 1.6 0.00 0.00 0.00 27 1006.8
20260505210504 33 0 0.0 0.0 0.00 0.00 0.00 27 1007.0
20260505210005 33 316 1.6 11.3 0.00 0.00 0.00 27 1007.1
20260505205504 33 313 4.8 14.5 0.00 0.00 0.00 27 1007.1
20260505205004 33 310 4.8 14.5 0.00 0.00 0.00 29 1007.0
20260505204504 33 309 3.2 9.7 0.00 0.00 0.00 29 1007.3
20260505204004 33 296 3.2 9.7 0.00 0.00 0.00 28 1007.2
20260505203005 33 300 3.2 9.7 0.00 0.00 0.00 28 1007.2
20260505202504 33 299 3.2 8.0 0.00 0.00 0.00 29 1007.3
20260505202004 33 288 3.2 8.0 0.00 0.00 0.00 29 1007.3
20260505201504 33 280 1.6 8.0 0.00 0.00 0.00 29 1007.3
20260505200505 33 283 3.2 9.7 0.00 0.00 0.00 30 1007.5
20260505195505 32 301 3.2 9.7 0.00 0.00 0.00 32 1007.6
20260505195004 32 297 3.2 12.9 0.00 0.00 0.00 34 1007.6
20260505194505 32 303 3.2 16.1 0.00 0.00 0.00 32 1007.7
20260505194004 32 291 3.2 16.1 0.00 0.00 0.00 32 1007.8
20260505193005 32 317 4.8 11.3 0.00 0.00 0.00 35 1007.7
20260505192504 32 314 4.8 14.5 0.00 0.00 0.00 35 1007.9
20260505192004 32 310 4.8 14.5 0.00 0.00 0.00 33 1007.9
20260505191505 32 297 4.8 12.9 0.00 0.00 0.00 34 1007.9
20260505191004 32 282 3.2 9.7 0.00 0.00 0.00 35 1008.0
20260505190504 31 294 3.2 11.3 0.00 0.00 0.00 36 1008.1
20260505190006 31 302 3.2 11.3 0.00 0.00 0.00 37 1008.1
20260505185504 31 303 1.6 9.7 0.00 0.00 0.00 38 1008.2
20260505185004 32 0 0.0 4.8 0.00 0.00 0.00 37 1008.2
20260505183504 31 0 0.0 0.0 0.00 0.00 0.00 40 1008.3
20260505183004 31 0 0.0 1.6 0.00 0.00 0.00 40 1008.2
20260505182504 31 0 0.0 1.6 0.00 0.00 0.00 40 1008.3
20260505182004 31 0 0.0 0.0 0.00 0.00 0.00 40 1008.4
20260505181504 31 0 0.0 3.2 0.00 0.00 0.00 40 1008.5
20260505181004 31 0 0.0 3.2 0.00 0.00 0.00 42 1008.6
20260505180004 31 0 0.0 0.0 0.00 0.00 0.00 43 1008.6
20260505175504 31 0 0.0 0.0 0.00 0.00 0.00 42 1008.6
20260505174505 30 0 0.0 1.6 0.00 0.00 0.00 44 1008.7
20260505174005 30 0 0.0 0.0 0.00 0.00 0.00 44 1008.7
20260505173504 30 0 0.0 0.0 0.00 0.00 0.00 53 1008.9
20260505173006 30 0 0.0 0.0 0.00 0.00 0.00 55 1008.9
20260505172504 30 0 0.0 0.0 0.00 0.00 0.00 54 1008.9
20260505172004 29 0 0.0 1.6 0.00 0.00 0.00 56 1008.9
20260505171004 28 0 0.0 0.0 0.00 0.00 0.00 57 1008.9
20260505170505 28 0 0.0 0.0 0.00 0.00 0.00 58 1008.8
20260505170004 28 0 0.0 9.7 0.00 0.00 0.00 59 1008.7
20260505165504 28 0 0.0 9.7 0.00 0.00 0.00 61 1008.7
20260505164504 27 225 3.2 14.5 0.00 0.00 0.00 63 1008.7
20260505164004 27 231 4.8 14.5 0.00 0.00 0.00 63 1008.7
20260505163504 27 236 4.8 14.5 0.00 0.00 0.00 63 1008.8
20260505163004 27 233 1.6 16.1 0.00 0.00 0.00 65 1008.7
20260505162504 27 233 1.6 16.1 0.00 0.00 0.00 64 1008.7
20260505162004 27 0 0.0 6.4 0.00 0.00 0.00 67 1008.7
20260505161505 26 0 0.0 6.4 0.00 0.00 0.00 67 1008.8
20260505161004 26 0 0.0 3.2 0.00 0.00 0.00 67 1008.7
20260505153004 25 226 1.6 17.7 0.00 0.00 0.00 74 1008.7
20260505152504 25 221 3.2 16.1 0.00 0.00 0.00 75 1008.7
20260505152003 25 220 1.6 11.3 0.00 0.00 0.00 76 1008.7
20260505151505 24 0 0.0 8.0 0.00 0.00 0.00 76 1008.6
20260505140504 22 215 3.2 25.7 0.00 0.00 0.00 83 1008.5